THOR ABLESTAR DEB, 560

Orbit data source: Space-Track

THOR ABLESTAR DEB, 560 is space debris in LEO originally from a launch on Thu, 29 Jun 1961 UTC launched from the Air Force Eastern Test Range (AFETR). Debris objects in space refer to the collection of defunct objects orbiting the Earth. Examples of debris include non-operational satellites, rocket bodies, and fragments generated from explosions, collisions, or faulty payload assembly.

Loading next visibility...
Identifier
560, 1961-015GS
Orbit
LEO
Country
Flag of USUS
Related business
Manufacturer
Unknown
Mission
Spacecraft
Bus & Motor
Unknown
Mass
Unknown
Launch date (UTC)
1961-06-29 (64 years ago)
Launch vehicle
Unknown
Launch site
Air Force Eastern Test Range (AFETR)
Object type
Payload
Rocket body
Debris
Shape & HBR
Unknown shape, 0.1 m
Radar Cross Section
Small (<0.1 m²)

Expand to show TLE details & history
Last TLE update: 16 hours ago

TLE from 16 hours ago
0 THOR ABLESTAR DEB
1 00560U 61015GS  25347.28001151  .00002741  00000-0  28682-2 0  9995
2 00560  67.1604 317.6493 0297820  83.1768 280.3083 13.58778471129143
Epoch: 2025-12-13T06:43Z
TLE epoch observation values (Epoch: 2025-12-13T06:43:12.994Z)
Latitude
0.00002°
Longitude
134.63562°
Altitude
1,009.086 km
Speed
7.364 km/s
True Right ascension
21h 10m 35s
True Declination
0° 00' 00"
Sunlit
Object was in daylight at epoch
Visualization orbit readout
Latitude
Unknown
Longitude
Unknown
Altitude
Unknown
Speed
Unknown
Apparent Right ascension
Unknown
Apparent Declination
Unknown
Sunlit
N/A
Visualization observer readout
Local Sidereal Time
20:57:17
Azimuth
Unknown
Elevation
Unknown
Doppler factor
Unknown
Orbital elements
Apogee altitude
1,259.393 km
Perigee altitude
817.628 km
Semi-major axis
7,416.648 km
Eccentricity
0.02978
Inclination
67.1604°
RAAN
317.6493°
Arg. of periapsis
83.1768°
True anomaly
276.93007°
Mean anomaly
280.3083°
Eccentric anomaly
278.6212°
Mean motion
3.39807 °/min
Orbital period
105.94 mins
BSTAR
0.0028682
Loading maneuver chart data...
Computing Atmospheric mass density...

Documentation

Showing up to 5 results
|